This demonstration page uses our WeatherBlox Daily Observations layout. Learn more.

Left ArrowRight Arrow

36.19886, -115.1175

Hourly Observations for March 17, 2017

Temp ( °F °C ) Dew Point ( °F °C ) Humidity (%) Winds ( mph kmh ) Pressure ( in mb ) Visibility ( mi km ) Precip ( " mm )
12:53 am 00:53 Clear 64 17.8 37 2.8 37 37 NNW 3 6 30.05 1018 10 16 N/A
1:53 am 01:53 Clear 63 17.2 37 2.8 38 38 NW 5 7 30.05 1018 10 16 N/A
2:53 am 02:53 Clear 64 17.8 34 1.1 33 33 NNW 7 11 30.04 1017 10 16 N/A
3:53 am 03:53 Clear 62 16.7 36 2.2 38 38 WNW 5 7 30.05 1018 10 16 N/A
4:53 am 04:53 Clear 60 15.6 37 2.8 42 42 NW 6 9 30.06 1018 10 16 N/A
5:53 am 05:53 Clear 62 16.7 35 1.7 37 37 N N/A 30.08 1019 10 16 N/A
6:53 am 06:53 Sunny 60 15.6 35 1.7 39 39 N N/A 30.09 1019 10 16 N/A
7:53 am 07:53 Sunny 62 16.7 35 1.7 37 37 NE 6 9 30.11 1020 10 16 N/A
8:53 am 08:53 Sunny 67 19.4 35 1.7 31 31 ENE 3 6 30.13 1020 10 16 N/A
9:53 am 09:53 Sunny 71 21.7 34 1.1 26 26 S 5 7 30.14 1021 10 16 N/A
10:53 am 10:53 Sunny 74 23.3 35 1.7 24 24 N N/A 30.13 1020 10 16 N/A
11:53 am 11:53 Sunny 77 25 34 1.1 21 21 VRB 5 7 30.11 1020 10 16 N/A
12:53 pm 12:53 Sunny 80 26.7 32 undefined 17 17 S 6 9 30.08 1019 10 16 N/A
1:53 pm 13:53 Sunny 82 27.8 32 undefined 16 16 VRB 5 7 30.05 1018 10 16 N/A
2:53 pm 14:53 Sunny 84 28.9 31 -0.6 15 15 SSE 6 9 30.02 1017 10 16 N/A
3:53 pm 15:53 Sunny 85 29.4 32 undefined 15 15 SE 8 13 30.00 1016 10 16 N/A
4:53 pm 16:53 Sunny 85 29.4 32 undefined 15 15 SE 10 17 29.99 1016 10 16 N/A
5:53 pm 17:53 Sunny 84 28.9 32 undefined 15 15 SE 8 13 29.98 1015 10 16 N/A
6:53 pm 18:53 Clear 82 27.8 30 -1.1 15 15 ENE 5 7 29.99 1016 10 16 N/A
7:53 pm 19:53 Clear 78 25.6 32 undefined 19 19 E 8 13 30.00 1016 10 16 N/A
8:53 pm 20:53 Clear 76 24.4 32 undefined 20 20 E 7 11 30.01 1016 10 16 N/A
9:53 pm 21:53 Clear 74 23.3 34 1.1 23 23 NW 6 9 30.03 1017 10 16 N/A
10:53 pm 22:53 Clear 72 22.2 34 1.1 25 25 NW 5 7 30.04 1017 10 16 N/A
11:53 pm 23:53 Clear 69 20.6 35 1.7 29 29 NW 5 7 30.05 1018 10 16 N/A

Powered by AerisWeather